This demonstration page uses our WeatherBlox Daily Observations layout. Learn more.

Left ArrowRight Arrow

Hourly Observations for February 6, 2018

Temp ( °F °C ) Dew Point ( °F °C ) Humidity (%) Winds ( mph kmh ) Pressure ( in mb ) Visibility ( mi km ) Precip ( " mm )
12:53 am 00:53 Clear 7 -13.9 0 -17.8 73 73 W 5 7 30.48 1032 10 16 0.00 0.00
1:53 am 01:53 Clear 8 -13.3 0 -17.8 69 69 N 9 15 30.45 1031 10 16 0.00 0.00
2:53 am 02:53 Clear 5 -15 -2 -18.9 72 72 NNE 10 17 30.44 1031 10 16 0.00 0.00
3:53 am 03:53 Clear 5 -15 -2 -18.9 72 72 ENE 6 9 30.45 1031 10 16 0.00 0.00
4:53 am 04:53 Cloudy 5 -15 -2 -18.9 72 72 E 7 11 30.45 1031 10 16 0.00 0.00
5:53 am 05:53 Cloudy 5 -15 -3 -19.4 69 69 E 9 15 30.45 1031 10 16 0.00 0.00
6:53 am 06:53 Cloudy 5 -15 -4 -20 66 66 E 7 11 30.46 1032 10 16 0.00 0.00
7:53 am 07:53 Cloudy 5 -15 -3 -19.4 69 69 E 7 11 30.46 1031 10 16 0.00 0.00
8:53 am 08:53 Cloudy 5 -15 -3 -19.4 69 69 ENE 6 9 30.47 1032 10 16 0.00 0.00
9:53 am 09:53 Cloudy 6 -14.4 -3 -19.4 66 66 SE 6 9 30.46 1031 10 16 0.00 0.00
10:53 am 10:53 Cloudy with Light Snow 7 -13.9 -2 -18.9 66 66 SE 9 15 30.43 1030 5 8 0.00 0.03
10:59 am 10:59 Cloudy with Light Snow 7 -13.9 -2 -18.9 66 66 SE 10 17 30.50 1033 3 4 0.00 0.03
11:07 am 11:07 Cloudy with Light Snow 6 -14.4 -1 -18.3 73 73 SE 6 9 30.50 1033 1 2 0.00 0.03
11:24 am 11:24 Mostly Cloudy with Light Snow 6 -14.4 1 -17.2 79 79 ESE 8 13 30.50 1033 1 1 0.00 0.03
11:53 am 11:53 Cloudy with Light Snow 6 -14.4 1 -17.2 79 79 SSE 5 7 30.44 1031 1 2 0.00 0.03
12:53 pm 12:53 Cloudy with Light Snow 7 -13.9 2 -16.7 80 80 SSE 3 6 30.41 1030 2 2 0.01 0.25
1:51 pm 13:51 Cloudy with Light Snow 9 -13 3 -16 78 78 SE 7 11 30.42 1030 1 1 0.01 0.25
1:53 pm 13:53 Mostly Cloudy with Light Snow 8 -13.3 3 -16.1 80 80 SE 8 13 30.37 1029 1 1 0.01 0.25
2:23 pm 14:23 Mostly Cloudy with Light Snow 8 -13.3 3 -16.1 80 80 SSE 7 11 30.45 1031 1 2 0.00 0.03
2:53 pm 14:53 Mostly Cloudy with Light Snow 9 -12.8 5 -15 84 84 SSE 6 9 30.36 1028 1 2 0.00 0.03
3:01 pm 15:01 Mostly Cloudy with Light Snow 9 -12.8 4 -15.6 80 80 SSE 7 11 30.42 1030 1 1 0.01 0.25
3:21 pm 15:21 Mostly Cloudy with Snow 9 -12.8 4 -15.6 80 80 SSE 3 6 30.42 1030 1 1 0.01 0.25
3:53 pm 15:53 Mostly Cloudy with Snow 9 -12.8 5 -15 84 84 Calm 30.36 1028 1 1 0.03 0.76
4:18 pm 16:18 Mostly Cloudy with Light Snow 9 -13 5 -15 85 85 S 6 9 30.39 1029 1 1 0.00 0.00
4:35 pm 16:35 Cloudy with Light Snow 9 -12.8 5 -15 84 84 S 7 11 30.39 1029 2 3 0.01 0.25
4:43 pm 16:43 Cloudy with Light Snow 9 -12.8 5 -15 84 84 S 7 11 30.39 1029 3 5 0.01 0.25
4:53 pm 16:53 Cloudy with Light Snow 9 -12.8 5 -15 84 84 SSE 9 15 30.33 1027 7 11 0.01 0.25
5:53 pm 17:53 Cloudy with Light Snow 10 -12.2 5 -15 80 80 S 9 15 30.33 1027 4 6 0.00 0.03
6:06 pm 18:06 Cloudy with Light Snow 10 -12.2 6 -14.4 84 84 S 5 7 30.42 1030 3 5 0.00 0.03
6:18 pm 18:18 Cloudy with Light Snow 10 -12.2 5 -15 80 80 S 6 9 30.42 1030 7 11 0.00 0.03
6:53 pm 18:53 Cloudy 10 -12.2 6 -14.4 84 84 SW 3 6 30.37 1029 10 16 0.00 0.03
7:53 pm 19:53 Clear 0 -17.8 -3 -19.4 87 87 WNW 5 7 30.42 1030 10 16 0.00 0.00
8:53 pm 20:53 Clear 0 -17.8 -4 -20 83 83 Calm 30.42 1030 10 16 0.00 0.00
9:53 pm 21:53 Clear with Mist and Fog -3 -19.4 -6 -21.1 86 86 WNW 5 7 30.43 1031 4 6 0.00 0.00
10:53 pm 22:53 Clear -5 -20.6 -9 -22.8 83 83 W 3 6 30.42 1030 10 16 0.00 0.00
11:53 pm 23:53 Mostly Cloudy 5 -15 0 -17.8 79 79 SW 3 6 30.42 1030 9 14 0.00 0.00

Powered by AerisWeather